Lid_Strength_Index
2 2 2 2 3 3 3 3 3 3 3 3 3 3 3 3 3 6 8 6 5 2 -1 6 6 7 10 12 13 15 19 20 18 17 16 14 15 12 11 12 11 12 5 4 3
3 3 3 3 3 4 3 3 3 4 4 4 4 4 4 3 6 8 4 2 1 1 4 7 8 8 13 14 14 15 19 18 16 15 16 13 15 13 12 12 12 13 12 3 3
3 3 3 3 4 4 4 4 4 4 4 4 4 4 4 4 10 10 2 -1 1 1 3 5 7 9 13 13 14 14 16 15 12 12 12 12 14 13 13 13 12 13 14 11 4
4 4 4 4 4 4 4 4 4 4 4 4 4 4 4 7 17 9 -1 -0 -1 2 3 5 7 11 14 14 13 16 13 12 12 10 11 11 11 13 13 12 10 11 13 12 12
4 4 4 4 4 4 4 4 4 4 4 4 4 4 6 11 11 6 2 4 2 3 5 6 10 11 14 14 13 15 14 12 10 10 10 9 11 11 12 10 11 11 13 13 12
4 4 4 4 4 4 4 4 4 4 4 4 4 4 8 13 8 6 6 7 3 4 4 6 8 9 12 13 14 13 12 12 12 12 12 12 11 11 12 9 9 10 10 13 13
5 5 5 5 5 5 4 4 4 4 4 4 4 5 9 11 7 7 7 9 6 3 5 4 6 8 10 12 11 11 13 13 13 13 13 12 12 12 10 9 10 9 9 9 10
5 5 5 6 5 5 5 4 4 5 5 5 4 7 10 6 6 7 6 7 6 6 6 5 5 9 12 11 11 14 15 15 14 13 13 12 15 12 10 9 10 9 9 9 9
5 5 5 5 5 5 5 5 5 5 4 5 6 7 11 4 6 5 5 7 6 6 5 3 7 10 11 12 16 16 18 17 15 12 12 13 15 11 10 10 10 9 9 9 9
5 5 5 5 5 5 5 5 5 5 5 5 4 8 8 8 5 4 5 5 6 6 7 6 9 13 14 15 18 17 18 16 16 13 13 13 14 12 10 11 10 10 10 9 9
6 5 5 5 5 5 6 8 11 11 8 9 8 8 6 5 4 5 3 5 5 7 10 8 11 14 13 13 14 14 15 15 13 11 12 13 14 12 11 11 12 11 11 10 9
5 5 5 5 5 5 7 11 10 9 12 7 7 6 5 5 7 6 5 7 7 10 9 10 13 9 9 11 12 13 14 15 13 11 13 13 13 12 11 11 11 10 11 10 10
5 5 5 5 5 8 10 8 6 8 13 9 7 7 7 6 7 6 5 7 8 10 10 12 10 8 9 9 11 13 14 14 14 11 11 13 14 13 11 11 10 10 10 10 10
6 6 5 5 8 9 10 8 7 7 14 11 8 7 6 6 8 5 4 6 8 10 9 10 8 9 10 10 10 13 11 11 12 13 16 13 19 14 12 11 11 10 11 10 10
5 5 5 5 8 10 8 7 6 7 20 10 7 3 6 8 7 6 4 6 10 9 10 11 10 10 11 10 9 11 8 10 11 12 15 13 17 15 13 12 12 11 10 10 7
5 5 5 7 8 7 6 6 7 14 19 10 7 9 9 7 7 6 7 5 6 9 9 10 7 8 9 8 8 7 9 10 10 13 17 15 15 16 14 12 12 10 10 6 7
5 4 5 5 10 7 7 8 14 17 9 10 10 9 9 10 10 9 10 11 12 14 14 11 10 8 7 10 8 9 13 19 19 18 18 14 16 15 12 10 9 8 8 7 7
4 4 6 5 5 6 7 10 17 13 11 8 8 9 11 11 10 11 12 13 10 11 14 16 17 10 8 10 12 11 12 18 22 20 18 14 17 15 9 7 7 7 7 7 7
5 8 8 6 5 6 9 15 15 11 9 10 10 12 12 11 11 12 12 13 11 10 15 16 15 9 8 8 9 12 14 11 15 15 17 16 13 11 9 9 8 8 7 8 7
8 11 9 5 4 5 9 13 11 8 9 10 14 12 15 13 13 13 13 10 11 9 8 12 16 10 9 8 8 10 9 14 14 19 20 17 18 17 13 12 9 9 10 8 7
11 12 7 3 2 6 13 12 10 7 7 11 12 13 12 13 13 13 13 10 9 9 8 11 13 13 10 12 13 12 12 12 13 15 19 19 19 12 12 11 11 9 10 9 7
10 16 8 5 10 8 11 9 7 8 6 8 9 10 12 12 13 13 14 11 8 9 12 10 13 16 14 10 9 10 12 11 16 17 15 17 18 10 10 10 9 9 8 8 8
10 11 7 6 12 13 9 9 8 9 9 9 10 9 9 12 14 12 11 8 8 9 11 10 14 18 16 13 10 13 12 11 12 13 17 19 18 10 9 9 9 9 8 7 8
10 13 10 9 7 12 12 10 10 7 8 8 9 9 10 12 10 13 12 9 8 9 8 9 13 15 18 15 13 14 12 11 12 17 16 15 16 12 11 10 9 8 8 7 7
11 12 11 15 12 11 11 10 11 11 8 8 10 10 11 14 12 12 11 10 9 8 9 11 15 13 13 13 12 12 12 12 13 12 15 15 14 12 10 10 8 7 7 7 7
13 14 10 11 10 10 10 11 11 10 10 10 11 9 10 13 12 13 11 11 12 10 11 10 15 13 14 12 12 14 12 12 13 13 13 13 14 9 8 8 8 8 7 7 7
10 9 9 11 10 10 10 10 10 8 8 8 9 10 11 10 8 8 8 8 9 11 11 12 13 15 18 13 13 17 14 12 12 11 12 15 12 9 9 9 8 8 7 7 7